Terminal Aerodrome Forecast
Issued by NWS Cleveland, OH

Home | Current Version | Previous Version | Graphics & Text | Print | Product List | Glossary On
Versions: 1 2 3 4 5 6 7 8 9 10 11 12 13 14
000
FTUS41 KCLE 201100
TAFTOL
TAF
KTOL 201130Z 2012/2112 14004KT P6SM SCT250
     FM201600 19008KT P6SM SCT250
     FM210000 19004KT P6SM BKN250=

USA.gov is the U.S. government's official web portal to all federal, state and local government web resources and services.